Weather History for KSTS - April, 2013

Change the Weather History Date:

Friday, April 19, 2013

  Actual Average Record
Temperature  
Mean Temperature 62 °F 56 °F  
Max Temperature 81 °F 70 °F 90 °F (2009)
Min Temperature 42 °F 43 °F 34 °F (2008)
Degree Days  
Heating Degree Days 3    
Month to date heating degree days 128  
Since 1 July heating degree days 2554  
Cooling Degree Days 0    
Month to date cooling degree days 1  
Year to date cooling degree days 1  
Growing Degree Days 12 (Base 50)    
Moisture  
Dew Point 45 °F    
Average Humidity 62    
Maximum Humidity 96    
Minimum Humidity 28    
Precipitation  
Precipitation 0.00 in 0.07 in 0.54 in (2004)
Month to date precipitation 1.11 1.44  
Year to date precipitation 4.85 19.87  
Since 1 July precipitation 27.26  
Sea Level Pressure  
Sea Level Pressure 30.14 in    
Wind  
Wind Speed 6 mph (NW)    
Max Wind Speed 24 mph    
Max Gust Speed 32 mph    
Visibility 9 miles    
Events      
T = Trace of Precipitation, MM = Missing Value Source: NWS Daily Summary

Daily Weather History Graph

Daily Weather History Graph

Search for Another Location

Airport or City:

Trip Planner

Search our weather history database for the weather conditions in past years. The results will help you decide how hot, cold, wet, or windy it might be!

Date:

Astronomy

Apr. 19, 2013 Rise Set
Actual Time 6:29 AM PDT 7:52 PM PDT
Civil Twilight 6:01 AM PDT 8:19 PM PDT
Nautical Twilight 5:28 AM PDT 8:53 PM PDT
Astronomical Twilight 4:53 AM PDT 9:28 PM PDT
Moon 1:46 PM PDT (4/19) 2:43 AM PDT (4/19)
Length of Visible Light 14h 18m
Length of Day
13h 22m
Waxing Gibbous, 62% of the Moon is Illuminated
Apr 19
Waxing Gibbous
Apr 25
Full
May 2
Last Quarter
May 9
New
May 17
First Quarter

Hourly Weather History & Observations

Time (PDT) Temp. Dew Point Humidity Pressure Visibility Wind Dir Wind Speed Gust Speed Precip Events Conditions
12:53 AM 46.9 °F 42.1 °F 83% 30.19 in 8.0 mi Calm Calm - N/A   Clear
1:53 AM 46.9 °F 42.1 °F 83% 30.19 in 8.0 mi Calm Calm - N/A   Clear
2:53 AM 45.0 °F 43.0 °F 93% 30.18 in 7.0 mi Calm Calm - N/A   Clear
3:53 AM 45.0 °F 42.1 °F 90% 30.18 in 8.0 mi Calm Calm - N/A   Clear
4:53 AM 45.0 °F 42.1 °F 90% 30.18 in 8.0 mi Calm Calm - N/A   Clear
5:53 AM 44.1 °F 41.0 °F 89% 30.19 in 7.0 mi Calm Calm - N/A   Clear
6:53 AM 43.0 °F 41.0 °F 93% 30.19 in 7.0 mi Calm Calm - N/A   Scattered Clouds
7:53 AM 48.0 °F 45.0 °F 89% 30.20 in 8.0 mi Calm Calm - N/A   Scattered Clouds
8:53 AM 54.0 °F 46.9 °F 77% 30.21 in 9.0 mi Calm Calm - N/A   Scattered Clouds
9:53 AM 60.1 °F 48.0 °F 64% 30.21 in 10.0 mi Calm Calm - N/A   Clear
10:53 AM 66.0 °F 48.0 °F 52% 30.20 in 10.0 mi Calm Calm - N/A   Scattered Clouds
11:53 AM 70.0 °F 48.0 °F 46% 30.19 in 10.0 mi Calm Calm - N/A   Partly Cloudy
12:53 PM 73.9 °F 48.9 °F 41% 30.17 in 10.0 mi West 3.5 mph - N/A   Partly Cloudy
1:53 PM 75.9 °F 53.1 °F 45% 30.13 in 10.0 mi South 11.5 mph - N/A   Partly Cloudy
2:53 PM 77.0 °F 52.0 °F 42% 30.12 in 10.0 mi South 8.1 mph - N/A   Partly Cloudy
3:53 PM 78.1 °F 54.0 °F 43% 30.09 in 10.0 mi SSE 8.1 mph - N/A   Partly Cloudy
4:53 PM 80.1 °F 45.0 °F 29% 30.06 in 10.0 mi NW 11.5 mph 26.5 mph N/A   Clear
5:53 PM 78.1 °F 44.1 °F 30% 30.06 in 10.0 mi NW 18.4 mph 27.6 mph N/A   Clear
6:53 PM 73.0 °F 45.0 °F 37% 30.04 in 10.0 mi NW 15.0 mph 26.5 mph N/A   Clear
7:53 PM 69.1 °F 44.1 °F 40% 30.06 in 10.0 mi NNW 13.8 mph 23.0 mph N/A   Clear
8:53 PM 64.9 °F 45.0 °F 48% 30.06 in 10.0 mi North 13.8 mph - N/A   Clear
9:53 PM 62.1 °F 44.1 °F 52% 30.08 in 10.0 mi North 9.2 mph - N/A   Clear
10:53 PM 61.0 °F 44.1 °F 54% 30.08 in 10.0 mi NNW 12.7 mph - N/A   Clear
11:53 PM 61.0 °F 43.0 °F 52% 30.07 in 10.0 mi NNW 12.7 mph 25.3 mph N/A   Clear